Regional Weather Roundup
Issued by NWS

Home | Current Version | Previous Version | Text Only | Print | Product List | Glossary Off
Versions: 1 2 3 4 5 6 7 8 9 10 11 12 13 14 15 16 17 18 19 20 21 22 23 24 25 26

745
ASUS45 KCYS 211810
RWRWY

WYOMING REGIONAL WEATHER ROUNDUP
NATIONAL WEATHER SERVICE CHEYENNE WY
1200 PM MDT THU MAY 21 2015

NOTE:  "FAIR" INDICATES FEW OR NO CLOUDS BELOW 12,000 FEET
WITH NO SIGNIFICANT WEATHER AND/OR OBSTRUCTIONS TO VISIBILITY.

WYZ001-211900-
YELLOWSTONE NATIONAL PARK

CITY           SKY/WX    TMP DP  RH WIND       PRES   REMARKS
LK YELLOWSTONE   N/A     49  32  52 E5        30.14F
6HR MIN TEMP:  36; 6HR MAX TEMP:  49;

W YELLOWSTONE  NOT AVBL

$$
WYZ002>013-054>058-071-098>099-211900-
NORTHERN WYOMING

CITY           SKY/WX    TMP DP  RH WIND       PRES   REMARKS
JACKSON        SUNNY     55  37  50 CALM      30.08F
CODY           FAIR      55  41  58 CALM      30.09F
GREYBULL       FAIR      59  37  44 CALM      30.08F
6HR MIN TEMP:  39; 6HR MAX TEMP:  59;

WORLAND        FAIR      58  38  47 SE6       30.08F
6HR MIN TEMP:  40; 6HR MAX TEMP:  59;

SHERIDAN       FAIR      58  40  51 E14       30.12S
6HR MIN TEMP:  32; 6HR MAX TEMP:  58;

BUFFALO        PTSUNNY   55  40  56 SE18G25   30.13S
6HR MIN TEMP:  37; 6HR MAX TEMP:  55;

GILLETTE       FAIR      53  39  59 SE16      30.17F
6HR MIN TEMP:  32; 6HR MAX TEMP:  53;

HULETT         FAIR      57  32  38 CALM      30.19F
NEWCASTLE      FAIR      54  34  47 SE7G17    30.21S

$$
WYZ014>020-022>026-101>103-211900-
CENTRAL WYOMING

CITY           SKY/WX    TMP DP  RH WIND       PRES   REMARKS
BIG PINEY      PTSUNNY   51  37  58 CALM      30.15S
6HR MIN TEMP:  38; 6HR MAX TEMP:  51;

PINEDALE       MOCLDY    52  36  54 S3        30.15R
DUBOIS         CLOUDY    52  32  46 E5        30.11F
LANDER         FAIR      53  39  59 NE6       30.11S
6HR MIN TEMP:  36; 6HR MAX TEMP:  53;

RIVERTON       PTSUNNY   53  39  59 N6        30.13S
6HR MIN TEMP:  35; 6HR MAX TEMP:  53;

CASPER         FAIR      54  40  59 VRB3      30.13F
6HR MIN TEMP:  37; 6HR MAX TEMP:  54;

DOUGLAS        CLOUDY    50  39  66 SE15G22   30.17F
6HR MIN TEMP:  38; 6HR MAX TEMP:  51;


$$
WYZ021-027>030-104>119-211900-
SOUTHERN WYOMING

CITY           SKY/WX    TMP DP  RH WIND       PRES   REMARKS
EVANSTON       FAIR      52  40  63 E14       30.08F
6HR MIN TEMP:  38; 6HR MAX TEMP:  52;

KEMMERER       MOCLDY    50  39  66 E10       30.13F
FORT BRIDGER   CLOUDY    48  46  93 E7        30.14F
ROCK SPRINGS   FAIR      53  43  68 E7        30.12F
6HR MIN TEMP:  35; 6HR MAX TEMP:  53;

DIXON          FAIR      61  38  43 CALM      30.12F
RAWLINS        FAIR      55  41  59 VRB7      30.14F
6HR MIN TEMP:  38; 6HR MAX TEMP:  55;

SARATOGA       FAIR      55  39  54 CALM      30.14F
LARAMIE        FAIR      57  35  43 SE3       30.14F
6HR MIN TEMP:  32; 6HR MAX TEMP:  57;

CHEYENNE       CLOUDY    44  38  79 S10       30.20S
6HR MIN TEMP:  36; 6HR MAX TEMP:  44;

TORRINGTON     CLOUDY    50  40  68 SE13      30.19F
6HR MIN TEMP:  40; 6HR MAX TEMP:  51;

PINE BLUFFS    CLOUDY    46  39  76 SE13G18   30.21F

$$



USA.gov is the U.S. government's official web portal to all federal, state and local government web resources and services.